Vorticity
nan nan nan nan nan nan nan nan nan nan nan nan nan nan nan nan nan nan nan nan nan nan nan nan nan nan nan nan nan nan nan nan nan nan nan nan nan nan nan nan nan nan nan nan nan nan nan nan nan nan nan nan nan nan
nan 7 6 8 7 7 8 9 9 10 10 10 10 10 10 13 20 23 18 15 13 10 8 14 15 17 14 11 13 13 9 8 11 12 10 9 9 7 11 11 12 12 13 10 10 8 4 10 14 2 9 10 11 nan
nan 7 8 7 8 8 8 9 10 10 10 10 10 11 12 17 21 19 16 12 15 12 12 15 17 15 16 17 13 7 9 10 12 9 8 11 10 10 10 9 8 8 7 9 5 2 2 14 8 7 9 12 14 nan
nan 7 8 9 7 9 9 9 10 10 9 10 11 11 15 20 16 15 14 11 13 13 12 10 9 7 12 14 14 10 5 6 12 12 10 9 13 9 6 10 12 10 4 11 17 -5 7 6 -9 9 12 15 16 nan
nan 8 7 10 9 8 9 10 11 9 9 11 11 13 19 21 14 11 8 11 11 10 10 8 13 11 7 11 18 19 16 14 12 12 11 12 11 11 13 11 7 5 13 10 6 7 10 -1 2 12 14 15 17 nan
nan 8 7 7 9 9 9 11 10 9 11 11 13 18 20 20 15 10 9 5 7 12 12 11 11 9 6 13 16 11 17 20 15 12 12 11 11 12 14 13 -4 -1 12 12 10 10 12 15 13 12 14 14 16 nan
nan 6 7 7 8 10 11 11 8 9 12 12 18 23 20 14 12 10 9 7 13 14 11 10 9 10 14 11 9 11 11 11 14 13 9 9 10 15 12 -2 -1 10 12 16 15 18 21 15 14 14 15 14 14 nan
nan 6 7 8 9 11 13 9 9 12 12 17 23 24 17 12 10 6 -0 8 17 15 11 11 11 8 12 13 12 10 8 9 11 13 9 11 12 14 0 -1 13 14 19 18 17 20 20 17 15 15 16 14 13 nan
nan 7 6 8 13 11 9 9 12 12 15 23 25 17 8 8 6 2 7 18 14 11 12 10 10 10 11 15 12 10 11 11 8 10 12 11 10 7 3 9 13 18 20 18 17 16 16 15 15 14 14 14 11 nan
nan 7 6 10 13 7 8 12 12 14 23 25 17 12 8 2 10 18 17 12 8 11 12 10 12 10 10 13 12 12 12 10 11 12 10 10 7 0 11 16 14 16 18 19 15 13 14 11 10 12 13 12 11 nan
nan 8 7 13 11 8 9 12 14 24 25 14 13 13 8 13 18 14 11 10 13 12 8 10 11 12 12 10 10 13 12 11 10 9 11 9 3 3 11 15 15 15 16 16 14 14 14 14 13 10 10 12 12 nan
nan 7 9 16 9 7 14 15 22 24 15 11 13 13 9 12 16 12 11 10 11 9 10 10 11 13 11 12 9 9 13 12 10 12 10 9 3 5 12 12 14 15 14 13 12 12 11 13 14 13 11 10 11 nan
nan 7 16 11 5 12 15 19 21 20 13 10 10 10 10 11 12 10 11 12 7 8 8 10 13 15 14 12 10 11 12 12 11 10 12 8 6 9 11 12 11 11 11 10 11 11 11 11 11 13 13 12 12 nan
nan 9 19 6 3 15 17 21 18 12 10 11 9 11 15 14 9 9 9 8 9 8 7 14 14 11 12 12 13 13 13 12 10 9 10 7 9 12 12 13 11 10 10 11 10 11 11 11 10 11 13 13 12 nan
nan 19 17 2 5 17 21 18 11 12 12 10 11 11 10 11 11 10 12 11 11 11 12 14 14 10 12 12 14 14 10 11 12 13 10 9 10 11 12 12 12 12 12 11 10 10 10 10 10 10 11 12 12 nan
nan 21 4 3 16 19 20 13 10 13 11 12 12 9 10 13 11 9 9 13 13 12 16 13 11 13 10 13 12 13 13 14 14 12 11 10 10 11 11 12 12 12 11 11 11 11 10 10 12 11 10 10 11 nan
nan 8 3 12 21 15 12 16 9 12 14 11 10 10 11 12 10 11 12 12 12 14 13 14 11 13 13 13 10 10 17 17 12 10 9 10 10 11 12 11 10 11 11 11 11 11 12 11 10 8 9 10 12 nan
nan 8 10 16 21 13 7 13 13 11 12 11 10 11 11 12 13 13 13 13 13 13 14 13 13 11 14 13 14 13 11 10 11 11 10 10 11 12 11 10 10 11 11 11 11 9 9 12 11 9 9 12 11 nan
nan 14 11 19 18 13 11 10 11 14 11 13 12 11 12 13 13 14 15 13 12 14 14 11 13 12 10 12 15 14 12 11 10 9 9 9 11 12 12 10 10 10 9 11 13 13 9 9 11 11 11 13 11 nan
nan 7 12 14 18 15 12 10 15 13 11 11 13 10 10 11 13 13 13 13 14 12 12 13 12 12 11 12 13 15 14 13 10 8 8 9 9 9 10 12 10 11 11 10 9 12 14 10 9 11 11 13 11 nan
nan 6 13 12 12 12 14 12 13 12 13 12 12 11 11 10 11 12 11 13 12 13 12 10 12 12 12 13 14 14 13 13 13 14 14 10 10 10 10 10 12 12 11 10 10 8 11 12 11 12 12 11 11 nan
nan 14 13 11 14 11 10 10 12 13 11 13 11 11 13 12 10 11 12 12 12 11 12 12 14 14 12 12 13 15 15 14 14 14 13 12 10 10 11 12 13 12 11 11 11 11 10 10 12 12 11 11 12 nan
nan 14 12 14 11 11 12 13 9 12 15 12 14 12 11 12 10 12 13 12 11 11 13 13 12 14 13 11 10 9 13 13 11 11 9 10 11 11 10 10 11 12 11 10 12 12 8 9 14 13 12 12 13 nan
nan 13 12 13 13 15 12 12 13 13 12 11 14 13 11 10 13 15 12 12 12 13 13 12 11 10 8 9 9 9 11 12 11 10 11 13 10 9 11 11 11 11 11 11 11 11 12 10 12 14 12 12 12 nan
nan 8 14 13 13 11 13 11 13 14 11 11 13 12 10 12 15 13 13 14 12 11 11 10 11 11 12 11 10 8 10 13 12 10 10 14 14 11 10 11 10 10 11 11 10 11 12 13 11 11 12 11 11 nan
nan 12 13 13 12 13 12 12 13 12 12 13 12 12 13 14 13 13 14 13 12 13 12 12 12 11 11 13 13 11 10 11 12 12 11 11 12 12 11 11 11 9 8 11 9 9 11 11 11 11 11 8 12 nan
nan 13 13 13 14 13 12 12 12 12 11 12 11 12 14 14 13 12 11 12 14 13 13 13 13 13 14 12 11 12 12 11 11 12 13 11 10 10 11 11 9 7 9 11 11 10 10 12 12 12 12 12 12 nan
nan 11 11 12 13 14 13 11 12 13 13 12 12 13 13 10 12 11 12 14 14 12 11 10 12 14 14 12 12 13 11 12 13 12 11 12 12 12 12 11 6 8 16 15 11 10 11 12 13 12 13 13 13 nan
nan 13 12 12 15 13 12 12 13 11 12 13 12 12 12 12 13 13 12 13 12 12 11 10 11 11 11 11 11 12 14 14 11 10 11 12 13 14 12 10 11 14 13 8 8 13 15 16 14 14 15 15 14 nan
nan 13 15 13 13 12 12 12 12 12 12 11 14 14 14 12 12 13 13 12 12 11 11 12 14 12 11 11 11 11 11 12 11 13 14 12 10 10 11 11 12 13 13 12 13 9 14 17 14 13 13 13 13 nan
nan 14 11 12 12 12 11 13 14 12 13 13 13 12 10 13 16 16 13 12 12 13 12 12 11 12 13 13 12 13 14 14 11 11 11 11 11 11 11 12 13 13 12 12 12 13 14 12 12 11 11 11 11 nan
nan 14 13 12 13 12 12 11 13 13 13 13 13 13 13 13 14 16 14 13 12 13 12 12 12 15 12 10 12 11 14 16 14 12 8 7 9 11 14 15 14 12 11 12 13 12 11 12 11 11 11 11 12 nan
nan nan nan nan nan nan nan nan nan nan nan nan nan nan nan nan nan nan nan nan nan nan nan nan nan nan nan nan nan nan nan nan nan nan nan nan nan nan nan nan nan nan nan nan nan nan nan nan nan nan nan nan nan nan
CAPE
0 2 2 6 5 6 11 21 23 21 27 34 35 29 30 46 67 91 104 88 87 75 10 9 51 49 29 33 57 30 11 13 20 13 16 23 8 7 0 1 1 5 22 7 3 2 0 0 0 0 0 0 0 3
1 2 3 4 3 6 13 17 15 17 25 29 27 27 33 49 41 42 37 44 60 59 18 4 6 0 6 15 45 12 13 9 5 20 12 22 16 17 6 4 0 20 10 18 14 2 0 0 0 0 0 0 0 1
1 1 3 5 4 9 13 12 12 16 18 23 23 23 30 38 26 0 7 26 20 19 32 6 5 0 0 0 3 26 6 3 20 13 22 25 9 5 10 11 4 4 0 10 0 0 0 0 0 0 0 0 0 0
0 1 4 5 8 8 11 10 11 13 16 20 17 18 23 20 7 0 7 19 25 25 25 6 0 0 0 0 0 5 9 19 21 33 28 34 21 6 9 19 19 2 2 0 0 0 0 0 0 1 0 0 0 0
0 4 11 5 6 10 10 8 9 8 13 13 12 16 14 13 0 0 0 6 4 4 19 1 0 0 0 0 5 2 10 11 22 36 31 25 26 19 1 21 3 5 12 8 3 0 7 1 3 2 0 0 0 0
6 5 4 7 6 9 9 8 5 6 9 8 9 9 6 2 0 7 7 11 8 27 28 8 0 0 0 0 24 24 10 14 45 48 25 20 4 5 14 8 1 0 2 8 16 10 6 4 5 0 3 11 3 4
1 0 1 3 6 9 6 6 2 6 7 5 4 2 3 0 3 2 6 22 27 9 25 10 5 0 0 1 15 39 27 8 16 18 8 15 4 7 3 0 0 1 4 9 7 4 2 1 3 5 12 9 11 5
0 1 3 6 13 8 3 1 5 3 2 0 0 0 1 0 0 4 1 25 10 16 7 7 1 1 0 5 16 13 36 25 26 16 19 7 3 0 3 0 0 0 3 5 12 7 4 5 9 12 8 12 5 6
1 3 6 16 11 0 0 3 3 1 0 0 0 0 0 0 2 5 0 1 2 2 16 7 9 7 0 4 9 32 40 13 2 21 6 1 2 6 10 6 2 4 13 21 14 8 4 5 5 10 8 8 4 9
1 2 8 22 1 0 2 2 2 0 0 0 0 0 1 3 0 0 0 0 0 0 2 7 2 5 1 1 17 19 5 5 16 2 0 13 12 4 3 7 3 3 8 2 0 4 6 4 3 4 5 5 7 5
3 6 8 18 0 0 1 1 1 0 0 0 0 2 2 0 0 0 0 0 0 0 0 2 1 3 0 7 10 3 3 0 0 0 2 6 3 1 2 2 1 2 3 3 3 3 4 4 3 0 1 1 2 1
5 7 19 24 0 2 2 1 0 0 1 0 1 0 0 0 0 0 0 0 0 0 1 2 2 2 0 2 17 4 2 0 0 0 0 3 4 2 1 0 0 0 0 0 0 0 1 1 1 1 1 1 1 1
6 20 28 0 3 2 0 0 0 0 0 0 0 0 0 0 0 0 0 0 0 1 2 6 3 1 1 10 10 4 0 2 0 0 1 5 3 3 1 1 0 0 0 0 0 0 0 0 1 2 1 1 0 0
11 17 16 0 2 1 0 0 0 0 0 0 0 0 0 0 0 0 0 2 2 2 3 4 4 6 4 4 3 0 0 0 0 0 0 3 3 4 4 3 3 1 2 1 1 1 0 0 0 0 0 0 0 0
8 20 0 0 2 0 0 0 0 0 0 0 0 0 0 0 1 1 2 2 1 2 3 3 2 3 4 1 0 0 0 0 0 0 2 3 4 3 3 1 1 0 0 0 0 0 0 0 0 0 0 0 0 0
13 0 0 1 1 0 0 0 0 0 0 0 0 0 0 0 1 1 4 4 1 0 2 4 2 0 1 2 0 0 0 0 3 2 3 2 0 0 0 0 0 0 0 0 0 0 0 0 0 0 0 0 0 0
10 9 0 0 0 0 0 0 0 0 0 0 0 0 0 3 3 4 1 0 0 2 8 0 0 0 1 0 0 0 2 4 3 1 0 0 0 0 0 0 0 0 0 0 0 0 0 0 0 0 0 0 0 0
0 1 0 0 0 0 0 0 0 0 0 0 0 1 3 3 4 1 0 0 2 6 0 0 0 0 0 0 1 2 4 1 0 0 0 0 0 0 0 0 0 0 0 0 0 0 0 0 0 2 0 0 0 0
6 0 0 0 0 0 0 0 0 0 0 0 0 1 4 2 0 0 0 0 0 0 0 0 0 0 1 2 3 5 3 0 0 0 0 0 0 0 0 0 0 0 0 0 0 0 0 0 0 1 1 0 0 1
0 0 0 0 0 0 0 0 0 0 0 1 0 1 1 2 0 0 0 0 0 0 0 0 0 0 1 2 3 1 0 0 0 0 0 0 0 0 0 0 0 0 0 0 0 0 0 0 0 0 1 1 0 0
0 0 0 0 0 0 0 0 0 0 0 1 0 1 4 3 3 1 0 0 0 1 0 1 2 2 2 0 0 0 0 0 0 0 0 0 0 0 0 0 0 0 0 0 0 0 0 0 1 0 0 0 0 0
0 0 0 0 0 0 0 0 0 0 0 0 0 0 0 1 1 1 0 0 1 2 2 2 1 1 0 0 0 0 0 0 0 0 0 0 0 0 0 0 0 0 0 0 0 0 0 0 3 0 0 0 0 0
0 0 0 0 0 0 0 0 0 0 0 0 0 0 0 0 0 0 0 1 1 2 3 2 1 0 0 0 0 0 0 0 0 0 0 0 0 0 0 0 0 0 0 0 0 0 0 1 1 1 0 0 0 0
0 0 0 0 0 0 0 0 0 0 0 0 0 0 0 0 0 0 0 0 1 1 2 1 1 0 0 0 0 0 0 0 0 0 0 0 0 0 0 0 0 0 0 0 0 0 0 0 1 0 0 0 0 1
0 0 0 0 0 0 0 0 0 0 0 0 0 0 0 0 0 0 0 0 0 0 0 0 0 0 0 0 0 0 0 0 0 0 0 0 0 0 0 0 0 0 0 0 0 0 0 0 0 0 0 0 0 0
0 0 0 0 0 0 0 0 0 0 0 0 0 0 0 0 0 0 0 0 0 0 0 0 0 0 0 0 0 0 0 0 0 0 0 0 0 0 0 0 0 0 0 0 0 0 0 0 0 0 0 0 3 0
0 0 0 0 0 0 0 0 0 0 0 0 0 0 0 0 0 0 0 0 0 0 0 0 0 0 0 0 0 0 0 0 0 0 0 0 0 0 0 0 0 0 0 0 0 0 1 0 0 0 0 0 0 0
0 0 0 0 0 0 0 0 0 0 0 0 0 0 0 0 0 0 0 0 0 0 0 0 0 0 0 0 0 0 0 0 0 0 0 0 0 0 0 0 0 1 1 0 0 3 0 0 0 0 0 0 0 0
0 0 0 0 0 0 0 0 0 0 0 0 0 0 0 0 0 0 0 0 0 0 0 0 0 0 0 0 0 0 0 0 0 0 0 0 0 0 0 0 0 0 0 0 0 1 0 0 0 0 0 0 0 0
0 0 0 0 0 0 0 0 0 0 0 0 0 0 0 0 0 0 0 0 0 0 0 0 0 0 0 0 0 0 0 0 0 0 0 0 0 0 0 0 0 0 0 0 0 0 0 0 0 0 0 0 0 0
0 0 0 0 0 0 0 0 0 0 0 0 0 0 0 0 0 0 0 0 0 0 0 0 0 0 0 0 0 0 0 0 0 0 0 0 0 0 0 0 0 0 0 0 0 0 0 0 0 0 0 0 0 0
0 0 0 0 0 0 0 0 0 0 0 0 0 0 0 0 0 0 0 0 0 0 0 0 0 0 0 0 0 0 0 0 0 0 0 0 0 0 0 0 0 0 0 0 0 0 0 0 0 0 0 0 0 0
0 0 0 0 0 0 0 0 0 0 0 0 0 0 0 0 0 0 0 0 0 0 0 0 0 0 0 0 0 0 0 0 0 0 0 0 5 2 0 0 0 0 0 0 0 0 0 0 0 0 0 0 0 0